AX503 Weather Reports


Display with metric or nautical units.
time (UTC)temp
F
wind
direction
speed
MPH
gust
MPH
rain 1hr
in
rain 24hr
in
rain mn
in
humidity
%
barometer
mb
20260510081553 67 0 0.0 0.0 0.01 0.12 0.06 98 1013.6
20260510080051 67 0 0.0 0.0 0.01 0.12 0.06 98 1013.1
20260510074553 66 0 0.0 0.0 0.00 0.11 0.05 98 1013.5
20260510073111 67 0 0.0 0.0 0.00 0.11 0.05 98 1013.4
20260510071557 66 0 0.0 0.0 0.00 0.11 0.05 97 1013.4
20260510070050 67 0 0.0 0.0 0.01 0.11 0.05 97 1013.4
20260510064559 67 0 0.0 0.0 0.01 0.11 0.05 97 1013.5
20260510063055 67 0 0.0 0.0 0.01 0.11 0.05 97 1013.2
20260510061557 67 0 0.0 0.0 0.02 0.11 0.05 97 1013.6
20260510060053 67 0 0.0 0.0 0.02 0.10 0.04 97 1013.6
20260510054548 67 0 0.0 0.0 0.04 0.10 0.04 97 1013.9
20260510053049 67 0 0.0 0.0 0.04 0.10 0.04 97 1013.9
20260510051553 67 0 0.0 0.0 0.03 0.09 0.03 97 1013.8
20260510050052 67 0 0.0 0.0 0.01 0.07 0.01 97 1014.4
20260510044552 67 0 0.0 0.0 0.00 0.07 0.00 97 1014.2
20260510043104 67 0 0.0 0.0 0.00 0.07 0.00 97 1014.0
20260510041548 68 0 0.0 1.0 0.00 0.07 0.00 97 1014.0
20260510040053 68 0 0.0 0.0 0.00 0.07 0.00 97 1014.0
20260510034549 68 0 0.0 0.0 0.00 0.07 0.07 97 1013.9
20260510033053 68 0 0.0 1.0 0.00 0.07 0.07 97 1013.6
20260510031554 68 0 0.0 0.0 0.00 0.07 0.07 97 1013.6
20260510030048 68 0 0.0 0.0 0.00 0.07 0.07 97 1013.4
20260510024542 68 0 0.0 0.0 0.00 0.14 0.07 97 1013.2
20260510023048 68 0 0.0 0.0 0.00 0.14 0.07 97 1013.1
20260510021549 68 0 0.0 0.0 0.00 0.14 0.07 97 1013.0
20260510020040 68 0 0.0 0.0 0.00 0.14 0.07 97 1013.3
20260510014549 68 0 0.0 0.0 0.00 0.15 0.07 96 1013.1
20260510013051 68 0 0.0 0.0 0.00 0.15 0.07 96 1013.1
20260510011542 69 0 0.0 1.0 0.00 0.15 0.07 96 1013.1
20260510010049 69 0 0.0 1.0 0.00 0.15 0.07 96 1013.0
20260510004548 69 0 0.0 1.0 0.00 0.15 0.07 96 1012.9
20260510003051 69 0 0.0 0.0 0.00 0.15 0.07 96 1012.7
20260510001550 69 0 0.0 0.0 0.00 0.15 0.07 96 1012.6
20260510000052 69 0 0.0 0.0 0.00 0.15 0.07 96 1012.3
20260509234548 70 0 0.0 0.0 0.01 0.15 0.07 95 1011.9
20260509233053 70 0 0.0 0.0 0.01 0.15 0.07 95 1011.6
20260509231549 70 0 0.0 0.0 0.01 0.15 0.07 95 1011.8
20260509230045 70 0 0.0 0.0 0.01 0.15 0.07 95 1011.8
20260509224557 70 0 0.0 0.0 0.00 0.14 0.06 94 1011.7
20260509223049 70 0 0.0 0.0 0.01 0.14 0.06 94 1012.0
20260509221602 70 0 0.0 0.0 0.01 0.14 0.06 94 1011.6
20260509220050 70 0 0.0 0.0 0.02 0.14 0.06 93 1011.8
20260509214558 70 0 0.0 0.0 0.02 0.14 0.06 93 1011.8
20260509213049 71 0 0.0 0.0 0.01 0.13 0.05 93 1012.1
20260509211546 70 0 0.0 1.0 0.01 0.13 0.05 93 1012.1
20260509210046 71 0 0.0 1.0 0.00 0.12 0.04 92 1012.2
20260509204543 71 0 0.0 1.0 0.00 0.12 0.04 92 1012.4
20260509203049 71 0 0.0 2.0 0.01 0.12 0.04 92 1012.2
20260509201559 71 0 0.0 1.0 0.01 0.12 0.04 92 1012.2
20260509200057 71 0 0.0 1.0 0.01 0.12 0.04 93 1012.0
20260509194543 71 0 0.0 5.0 0.01 0.12 0.04 92 1012.1
20260509193043 71 0 0.0 2.0 0.00 0.11 0.03 92 1011.8
20260509191541 71 0 0.0 1.0 0.00 0.11 0.03 91 1011.6
20260509190101 72 0 0.0 3.0 0.01 0.11 0.03 91 1011.7
20260509184544 71 0 0.0 3.0 0.02 0.11 0.03 90 1012.1
20260509183044 72 0 0.0 4.0 0.02 0.11 0.03 88 1012.4
20260509181543 73 0 0.0 1.0 0.02 0.11 0.03 88 1012.9
20260509180045 73 0 0.0 1.0 0.01 0.10 0.02 86 1013.0
20260509174547 75 0 0.0 3.0 0.00 0.09 0.01 81 1012.9
20260509173047 76 0 0.0 1.0 0.00 0.09 0.01 80 1012.8
20260509171547 76 0 0.0 2.0 0.00 0.09 0.01 80 1012.8
20260509170044 76 0 0.0 3.0 0.00 0.09 0.01 80 1012.8
20260509164555 77 0 0.0 1.0 0.00 0.09 0.01 82 1012.7
20260509163051 77 0 0.0 3.0 0.00 0.09 0.01 81 1012.9
20260509161555 77 0 0.0 5.0 0.00 0.09 0.01 83 1012.8
20260509160049 77 0 0.0 3.0 0.00 0.09 0.01 82 1012.9
20260509154548 77 0 0.0 2.0 0.00 0.09 0.01 83 1012.8
20260509153055 76 0 0.0 3.0 0.00 0.09 0.01 85 1013.0
20260509151549 75 0 0.0 1.0 0.00 0.09 0.01 87 1013.3
20260509150051 74 0 0.0 3.0 0.00 0.09 0.01 88 1013.1
20260509144543 73 0 0.0 1.0 0.00 0.09 0.01 90 1013.6
20260509143044 73 223 0.0 1.0 0.00 0.09 0.01 90 1013.4
20260509141542 72 0 0.0 2.0 0.00 0.09 0.01 93 1013.4
20260509140059 72 0 0.0 3.0 0.00 0.09 0.01 93 1013.4
20260509134607 72 0 0.0 1.0 0.00 0.09 0.01 93 1013.3
20260509133050 72 0 0.0 1.0 0.00 0.09 0.01 94 1013.3
20260509131553 72 0 0.0 0.0 0.00 0.09 0.01 94 1013.2
20260509130048 72 0 0.0 1.0 0.00 0.09 0.01 94 1013.2
20260509124545 73 0 0.0 0.0 0.00 0.09 0.01 96 1013.0
20260509123052 71 0 0.0 0.0 0.00 0.09 0.01 97 1013.0
20260509121549 71 0 0.0 0.0 0.00 0.09 0.01 96 1012.8
20260509120043 69 0 0.0 0.0 0.00 0.09 0.01 97 1012.6
20260509114544 67 0 0.0 0.0 0.00 0.09 0.01 97 1012.7
20260509113053 66 0 0.0 0.0 0.00 0.09 0.01 98 1012.9
20260509111551 65 0 0.0 0.0 0.00 0.09 0.01 98 1012.4
20260509110046 65 0 0.0 0.0 0.00 0.09 0.01 98 1012.3
20260509104542 65 0 0.0 0.0 0.00 0.09 0.01 98 1012.0
20260509103053 65 0 0.0 0.0 0.00 0.09 0.01 98 1011.7
20260509101554 65 0 0.0 0.0 0.00 0.09 0.01 97 1011.4
20260509100042 65 0 0.0 0.0 0.00 0.09 0.01 97 1011.3
20260509094545 65 0 0.0 0.0 0.00 0.09 0.01 97 1011.3
20260509093052 65 0 0.0 0.0 0.00 0.09 0.01 97 1011.2
20260509091554 66 0 0.0 0.0 0.00 0.09 0.01 97 1011.2
20260509090051 66 0 0.0 0.0 0.00 0.09 0.01 97 1011.4
20260509084552 66 0 0.0 0.0 0.00 0.09 0.01 97 1011.4
20260509083052 66 0 0.0 1.0 0.00 0.09 0.01 97 1012.0